CW6688 Weather Reports


Display with metric or nautical units.
time (UTC)temp
F
wind
direction
speed
MPH
gust
MPH
rain 1hr
in
rain 24hr
in
rain mn
in
humidity
%
barometer
mb
20190217102026 32 140 0.0 0.0 0.00 0.13 0.00 94 1015.9
20190217101526 32 140 0.0 0.0 0.00 0.13 0.00 95 1015.9
20190217101026 32 140 0.0 0.0 0.00 0.13 0.00 95 1015.8
20190217100558 32 140 0.0 0.0 0.00 0.13 0.00 94 1015.6
20190217100037 32 140 0.0 0.0 0.00 0.14 0.00 94 1015.7
20190217095536 32 140 0.0 0.0 0.00 0.14 0.00 94 1015.5
20190217095036 33 140 0.0 0.0 0.00 0.14 0.00 94 1015.4
20190217094540 33 140 0.0 0.0 0.00 0.14 0.00 94 1015.5
20190217094039 33 140 0.0 0.0 0.00 0.14 0.00 94 1015.5
20190217093538 33 140 0.0 0.0 0.00 0.14 0.00 95 1015.5
20190217093038 33 140 0.0 0.0 0.00 0.14 0.00 94 1015.4
20190217092538 33 140 0.0 0.0 0.00 0.14 0.00 94 1015.4
20190217092038 33 140 0.0 0.0 0.00 0.14 0.00 94 1015.3
20190217091538 33 140 0.0 0.0 0.00 0.14 0.00 94 1015.3
20190217091038 33 140 0.0 0.0 0.00 0.14 0.00 94 1015.3
20190217090550 33 140 0.0 0.0 0.00 0.14 0.00 94 1015.2
20190217090030 34 140 0.0 0.0 0.00 0.14 0.00 94 1015.2
20190217085531 34 140 0.0 0.0 0.00 0.14 0.00 94 1015.2
20190217085030 34 140 0.0 0.0 0.00 0.14 0.00 94 1015.1
20190217084531 33 140 0.0 0.0 0.00 0.14 0.00 94 1015.1
20190217084036 33 140 0.0 0.0 0.00 0.14 0.00 94 1015.1
20190217083536 33 140 0.0 0.0 0.00 0.14 0.00 94 1014.9
20190217083037 33 140 0.0 0.0 0.00 0.14 0.00 94 1014.9
20190217082538 34 140 0.0 0.0 0.00 0.14 0.00 94 1014.8
20190217082038 34 140 0.0 0.0 0.00 0.14 0.00 94 1014.7
20190217081539 34 140 0.0 0.0 0.00 0.14 0.00 94 1014.7
20190217081039 34 140 0.0 0.0 0.00 0.14 0.00 94 1014.7
20190217080549 34 141 0.0 0.0 0.00 0.14 0.00 94 1014.8
20190217080030 34 140 0.0 0.0 0.00 0.14 0.14 94 1014.7
20190217075529 34 140 0.0 0.0 0.00 0.14 0.14 94 1014.6
20190217075029 34 140 0.0 0.0 0.00 0.14 0.14 94 1014.6
20190217074529 35 140 0.0 0.0 0.00 0.14 0.14 94 1014.5
20190217074030 35 140 0.0 0.0 0.00 0.14 0.14 94 1014.5
20190217073534 35 140 0.0 0.0 0.00 0.14 0.14 94 1014.5
20190217073034 35 140 0.0 0.0 0.00 0.14 0.14 94 1014.5
20190217072535 35 140 0.0 0.0 0.00 0.14 0.14 94 1014.5
20190217072034 35 141 0.0 0.0 0.00 0.14 0.14 94 1014.5
20190217071535 35 141 0.0 0.0 0.00 0.14 0.14 94 1014.4
20190217071036 35 140 0.0 0.0 0.00 0.14 0.14 94 1014.4
20190217070547 35 140 0.0 0.0 0.00 0.14 0.14 94 1014.4
20190217070024 35 140 0.0 0.0 0.00 0.14 0.14 94 1014.2
20190217065526 35 140 0.0 0.0 0.00 0.14 0.14 94 1014.2
20190217065027 35 140 0.0 0.0 0.00 0.14 0.14 94 1014.1
20190217064528 35 140 0.0 0.0 0.00 0.14 0.14 94 1014.1
20190217064028 35 140 0.0 0.0 0.00 0.14 0.14 94 1014.1
20190217063529 35 140 0.0 0.0 0.00 0.14 0.14 94 1014.0
20190217063033 35 140 0.0 0.0 0.00 0.14 0.14 94 1014.0
20190217062534 35 140 0.0 0.0 0.00 0.14 0.14 94 1013.9
20190217062034 35 140 0.0 0.0 0.00 0.14 0.14 94 1013.9
20190217061535 35 140 0.0 0.0 0.00 0.14 0.14 94 1013.9
20190217061034 35 140 0.0 0.0 0.00 0.14 0.14 94 1013.8
20190217060549 35 140 0.0 0.0 0.00 0.14 0.14 94 1013.7
20190217060045 36 140 0.0 0.0 0.00 0.14 0.14 94 1013.6
20190217055543 36 140 0.0 0.0 0.00 0.14 0.14 94 1013.7
20190217055042 36 140 0.0 0.0 0.00 0.14 0.14 94 1013.7
20190217054542 36 140 0.0 0.0 0.00 0.14 0.14 94 1013.6
20190217054042 36 141 0.0 0.0 0.00 0.14 0.14 94 1013.6
20190217053541 36 140 0.0 0.0 0.00 0.14 0.14 94 1013.5
20190217053040 35 140 0.0 0.0 0.00 0.14 0.14 94 1013.6
20190217052540 36 140 0.0 0.0 0.00 0.14 0.14 94 1013.5
20190217052040 35 140 0.0 0.0 0.00 0.14 0.14 94 1013.5
20190217051542 35 140 0.0 0.0 0.00 0.14 0.14 94 1013.4
20190217051044 35 140 0.0 0.0 0.00 0.14 0.14 94 1013.4
20190217050554 36 140 0.0 0.0 0.00 0.14 0.14 94 1013.2
20190217050032 35 140 0.0 0.0 0.00 0.14 0.14 94 1013.0
20190217045531 36 140 0.0 0.0 0.00 0.14 0.14 94 1013.2
20190217045031 36 140 0.0 3.0 0.00 0.14 0.14 94 1013.0
20190217044531 35 140 0.0 1.0 0.00 0.14 0.14 95 1013.0
20190217044031 35 140 0.0 0.0 0.00 0.14 0.14 95 1013.1
20190217043531 35 140 0.0 0.0 0.00 0.14 0.14 95 1013.0
20190217043032 35 139 0.0 7.0 0.00 0.14 0.14 94 1012.9
20190217042531 35 139 1.0 7.0 0.00 0.14 0.14 94 1013.0
20190217042030 35 141 0.0 3.0 0.00 0.14 0.14 94 1012.9
20190217041531 35 143 0.0 4.0 0.00 0.14 0.14 94 1012.9
20190217041034 35 160 0.0 6.0 0.00 0.14 0.14 94 1012.8
20190217040546 35 148 1.0 6.0 0.00 0.14 0.14 94 1012.8
20190217040026 35 148 0.0 5.0 0.00 0.14 0.14 94 1012.8
20190217035525 35 147 0.0 3.0 0.00 0.14 0.14 94 1012.6
20190217035025 35 143 0.0 4.0 0.00 0.14 0.14 94 1012.6
20190217034525 35 150 0.0 5.0 0.00 0.14 0.14 94 1012.6
20190217034025 36 144 1.0 3.0 0.00 0.14 0.14 95 1012.6
20190217033544 36 138 0.0 7.0 0.01 0.14 0.14 95 1012.6
20190217033043 36 135 2.0 7.0 0.01 0.14 0.14 95 1012.7
20190217032543 36 134 0.0 5.0 0.01 0.14 0.14 95 1012.6
20190217032043 36 140 1.0 5.0 0.01 0.14 0.14 94 1012.7
20190217031543 36 142 0.0 5.0 0.01 0.14 0.14 94 1012.5
20190217031043 36 140 1.0 7.0 0.01 0.14 0.14 94 1012.5
20190217030554 36 127 1.0 7.0 0.01 0.14 0.14 94 1012.5
20190217030038 36 148 0.0 7.0 0.01 0.14 0.14 94 1012.5
20190217025538 36 142 1.0 7.0 0.02 0.14 0.14 94 1012.5
20190217025038 36 161 0.0 7.0 0.02 0.14 0.14 94 1012.4
20190217024537 36 140 0.0 9.0 0.02 0.14 0.14 94 1012.4
20190217024037 36 144 2.0 9.0 0.02 0.14 0.14 94 1012.4
20190217023537 36 137 0.0 8.0 0.01 0.13 0.13 94 1012.2
20190217023037 36 138 0.0 5.0 0.01 0.13 0.13 94 1012.3
20190217022537 36 140 1.0 5.0 0.02 0.13 0.13 94 1012.2
20190217022037 37 135 0.0 5.0 0.02 0.13 0.13 94 1012.3
20190217021536 37 150 0.0 5.0 0.02 0.13 0.13 94 1012.1
20190217021036 37 142 1.0 4.0 0.02 0.13 0.13 94 1012.1
20190217020547 37 143 0.0 5.0 0.02 0.13 0.13 94 1012.0
20190217020026 37 143 1.0 5.0 0.03 0.13 0.13 94 1011.9
20190217015529 37 142 0.0 4.0 0.02 0.12 0.12 94 1011.8
20190217015029 37 146 0.0 3.0 0.02 0.12 0.12 93 1011.8
20190217014529 37 146 0.0 3.0 0.02 0.12 0.12 94 1011.8
20190217014028 37 175 0.0 0.0 0.02 0.12 0.12 93 1011.8
20190217013528 37 218 0.0 0.0 0.02 0.12 0.12 93 1011.7
20190217013027 37 218 0.0 0.0 0.01 0.11 0.11 93 1011.6
20190217012527 37 218 0.0 3.0 0.02 0.11 0.11 93 1011.5
20190217012027 37 219 0.0 3.0 0.02 0.11 0.11 93 1011.5
20190217011527 38 227 0.0 6.0 0.02 0.11 0.11 93 1011.5
20190217011027 38 179 1.0 6.0 0.02 0.11 0.11 93 1011.4
20190217010603 38 223 0.0 0.0 0.02 0.11 0.11 93 1011.4
20190217010043 38 223 0.0 0.0 0.01 0.10 0.10 93 1011.5
20190217005544 38 223 0.0 0.0 0.01 0.10 0.10 93 1011.4
20190217005027 38 223 0.0 0.0 0.01 0.10 0.10 93 1011.4
20190217004527 38 229 0.0 4.0 0.01 0.10 0.10 92 1011.3
20190217004027 38 212 0.0 7.0 0.01 0.10 0.10 92 1011.3
20190217003526 39 219 4.0 7.0 0.01 0.10 0.10 92 1011.3
20190217003024 40 189 1.0 3.0 0.00 0.09 0.09 93 1011.2
20190217002525 40 167 0.0 0.0 0.00 0.09 0.09 93 1011.0
20190217002023 40 167 0.0 0.0 0.00 0.09 0.09 93 1011.0
20190217001525 40 167 0.0 0.0 0.00 0.09 0.09 93 1010.8
20190217001024 40 167 0.0 0.0 0.00 0.09 0.09 93 1010.9
20190217000600 40 167 0.0 0.0 0.00 0.09 0.09 93 1010.9
20190217000040 40 167 0.0 0.0 0.00 0.09 0.09 93 1010.8
20190216235541 40 167 0.0 0.0 0.00 0.09 0.09 93 1010.8
20190216235041 40 167 0.0 0.0 0.00 0.09 0.09 93 1010.9
20190216234525 40 167 0.0 0.0 0.00 0.09 0.09 93 1011.0
20190216234026 40 167 0.0 0.0 0.00 0.09 0.09 92 1011.1
20190216233527 40 167 0.0 0.0 0.00 0.09 0.09 93 1011.1
20190216233027 41 167 0.0 0.0 0.00 0.09 0.09 93 1010.9
20190216232527 41 167 0.0 0.0 0.00 0.09 0.09 93 1011.0
20190216232027 41 167 0.0 0.0 0.00 0.09 0.09 93 1011.0
20190216231528 41 167 0.0 0.0 0.00 0.09 0.09 93 1011.0
20190216231028 40 167 0.0 0.0 0.00 0.09 0.09 93 1011.0
20190216230559 40 167 0.0 0.0 0.00 0.09 0.09 93 1010.9
20190216230039 40 167 0.0 0.0 0.00 0.09 0.09 93 1010.9
20190216225539 40 167 0.0 0.0 0.00 0.09 0.09 93 1010.9
20190216225039 40 167 0.0 0.0 0.00 0.09 0.09 93 1010.8
20190216224540 40 167 0.0 0.0 0.00 0.09 0.09 93 1010.7
20190216224041 40 167 0.0 0.0 0.00 0.09 0.09 93 1010.7
20190216223546 40 167 0.0 0.0 0.00 0.09 0.09 93 1010.8
20190216223045 40 167 0.0 0.0 0.00 0.09 0.09 93 1010.9
20190216222527 40 167 0.0 0.0 0.01 0.09 0.09 93 1010.8
20190216222026 40 167 0.0 0.0 0.01 0.09 0.09 93 1010.7
20190216221527 40 167 0.0 0.0 0.01 0.09 0.09 93 1010.8
20190216221027 40 167 0.0 0.0 0.01 0.09 0.09 93 1010.8
20190216220559 40 167 0.0 0.0 0.01 0.09 0.09 93 1010.8
20190216220039 40 167 0.0 0.0 0.01 0.09 0.09 93 1010.8
20190216215540 40 167 0.0 0.0 0.01 0.09 0.09 94 1010.8
20190216215040 40 184 0.0 0.0 0.01 0.09 0.09 94 1010.7
20190216214541 40 184 0.0 0.0 0.01 0.09 0.09 94 1010.8
20190216214041 40 184 0.0 0.0 0.01 0.09 0.09 94 1010.7
20190216213541 40 175 0.0 1.0 0.01 0.09 0.09 94 1010.8
20190216213045 40 175 0.0 0.0 0.01 0.09 0.09 94 1010.9
20190216212545 40 175 0.0 1.0 0.00 0.08 0.08 94 1010.9
20190216212026 40 175 0.0 4.0 0.00 0.08 0.08 94 1011.0
20190216211526 40 152 0.0 3.0 0.00 0.08 0.08 94 1010.9
20190216211026 40 182 0.0 0.0 0.00 0.08 0.08 95 1010.9
20190216210602 39 182 0.0 0.0 0.00 0.08 0.08 94 1011.0
20190216210041 39 163 0.0 0.0 0.00 0.10 0.08 94 1011.0
20190216205541 39 161 0.0 0.0 0.00 0.10 0.08 94 1011.0
20190216205042 39 161 0.0 0.0 0.00 0.10 0.08 95 1011.0
20190216204542 39 196 0.0 3.0 0.00 0.10 0.08 95 1010.9
20190216204042 39 219 0.0 3.0 0.00 0.10 0.08 95 1011.1
20190216203542 39 219 0.0 3.0 0.00 0.10 0.08 95 1011.0
20190216203027 39 219 1.0 3.0 0.00 0.10 0.08 95 1011.0
20190216202528 39 180 0.0 0.0 0.00 0.10 0.08 95 1010.9
20190216202028 39 198 0.0 0.0 0.00 0.10 0.08 95 1011.1
20190216201529 39 195 0.0 0.0 0.00 0.10 0.08 95 1011.0
20190216201030 39 82 0.0 0.0 0.00 0.10 0.08 95 1011.1
20190216200605 39 82 0.0 0.0 0.00 0.10 0.08 95 1011.2
20190216200045 39 82 0.0 0.0 0.00 0.10 0.08 95 1011.2
20190216195545 38 82 0.0 0.0 0.00 0.10 0.08 95 1011.2
20190216195045 39 82 0.0 0.0 0.00 0.10 0.08 95 1011.2
20190216194526 39 82 0.0 0.0 0.00 0.10 0.08 95 1011.2
20190216194026 39 82 0.0 0.0 0.01 0.10 0.08 95 1011.1
20190216193527 39 82 0.0 0.0 0.01 0.10 0.08 95 1011.0
20190216193026 39 82 0.0 0.0 0.02 0.10 0.08 95 1010.9
20190216192529 38 82 0.0 0.0 0.02 0.10 0.08 95 1011.0
20190216192029 38 82 0.0 0.0 0.02 0.10 0.08 95 1011.0
20190216191530 38 82 0.0 0.0 0.02 0.10 0.08 95 1010.8
20190216191029 38 82 0.0 0.0 0.02 0.10 0.08 95 1011.0
20190216190605 38 82 0.0 0.0 0.02 0.10 0.08 95 1011.0
20190216190044 38 82 0.0 0.0 0.03 0.10 0.08 95 1011.0
20190216185543 37 82 0.0 0.0 0.03 0.10 0.08 95 1011.0
20190216185043 37 82 0.0 0.0 0.03 0.10 0.08 95 1010.9
20190216184544 37 82 0.0 0.0 0.03 0.10 0.08 95 1011.0
20190216184043 37 82 0.0 0.0 0.02 0.09 0.07 95 1010.9
20190216183543 37 82 0.0 0.0 0.02 0.09 0.07 95 1010.8
20190216183042 37 82 0.0 0.0 0.02 0.08 0.06 95 1010.7
20190216182542 37 82 0.0 0.0 0.02 0.08 0.06 95 1010.7
20190216182026 37 82 0.0 0.0 0.02 0.08 0.06 95 1010.6
20190216181527 37 82 0.0 0.0 0.03 0.08 0.06 95 1010.6
20190216181026 37 82 0.0 0.0 0.03 0.08 0.06 95 1010.6
20190216180557 37 82 0.0 0.0 0.03 0.08 0.06 95 1010.7
20190216180037 37 82 0.0 0.0 0.02 0.07 0.05 95 1010.6
20190216175537 37 82 0.0 0.0 0.02 0.07 0.05 95 1010.6
20190216175036 37 82 0.0 0.0 0.02 0.07 0.05 95 1010.6
20190216174536 37 82 0.0 0.0 0.03 0.07 0.05 95 1010.6
20190216174036 37 82 0.0 0.0 0.03 0.07 0.05 95 1010.5
20190216173535 37 82 0.0 0.0 0.03 0.07 0.05 95 1010.4
20190216173034 37 82 0.0 0.0 0.02 0.06 0.04 95 1010.4
20190216172533 36 82 0.0 0.0 0.02 0.06 0.04 95 1010.4
20190216172033 36 82 0.0 0.0 0.02 0.06 0.04 95 1010.2
20190216171532 36 82 0.0 0.0 0.01 0.05 0.03 95 1010.2
20190216171037 36 82 0.0 0.0 0.01 0.05 0.03 95 1010.4
20190216170547 36 82 0.0 0.0 0.02 0.05 0.03 95 1010.4
20190216170027 36 82 0.0 0.0 0.02 0.05 0.03 95 1010.4
20190216165527 36 82 0.0 0.0 0.02 0.05 0.03 95 1010.3
20190216165027 36 82 0.0 0.0 0.02 0.05 0.03 95 1010.2
20190216164528 36 82 0.0 0.0 0.01 0.04 0.02 95 1010.2
20190216164027 36 82 0.0 0.0 0.01 0.04 0.02 95 1010.2
20190216163529 36 82 0.0 0.0 0.01 0.04 0.02 95 1010.0
20190216163028 36 82 0.0 0.0 0.01 0.04 0.02 95 1010.0
20190216162529 36 82 0.0 0.0 0.01 0.04 0.02 95 1010.0
20190216162029 36 82 0.0 0.0 0.01 0.04 0.02 95 1010.0
20190216161530 36 82 0.0 0.0 0.01 0.04 0.02 95 1010.0
20190216161030 36 82 0.0 0.0 0.01 0.04 0.02 95 1009.9
20190216160600 36 82 0.0 0.0 0.00 0.03 0.01 95 1009.9
20190216160044 35 82 0.0 0.0 0.00 0.03 0.01 94 1009.8
20190216155545 35 82 0.0 0.0 0.00 0.03 0.01 94 1009.7
20190216155045 35 82 0.0 0.0 0.00 0.03 0.01 94 1009.7
20190216154527 35 82 0.0 0.0 0.00 0.03 0.01 94 1009.8
20190216154027 35 82 0.0 0.0 0.00 0.03 0.01 94 1009.7
20190216153527 35 82 0.0 0.0 0.00 0.03 0.01 94 1009.5
20190216153028 35 82 0.0 0.0 0.00 0.03 0.01 94 1009.6
20190216152528 35 82 0.0 0.0 0.00 0.03 0.01 94 1009.5
20190216152029 35 82 0.0 0.0 0.00 0.03 0.01 94 1009.4
20190216151529 35 82 0.0 0.0 0.00 0.03 0.01 94 1009.3
20190216151030 34 82 0.0 0.0 0.00 0.03 0.01 94 1009.4
20190216150600 34 82 0.0 0.0 0.00 0.03 0.01 94 1009.3
20190216150040 34 82 0.0 0.0 0.00 0.03 0.01 94 1009.3
20190216145544 35 82 0.0 0.0 0.00 0.03 0.01 94 1009.1
20190216145043 35 82 0.0 0.0 0.00 0.03 0.01 94 1009.0
20190216144544 35 82 0.0 0.0 0.00 0.03 0.01 94 1009.1
20190216144045 35 82 0.0 0.0 0.00 0.03 0.01 94 1008.9
20190216143545 35 82 0.0 0.0 0.00 0.03 0.01 94 1009.0
20190216143046 35 82 0.0 0.0 0.00 0.03 0.01 94 1008.9
20190216142526 35 82 0.0 0.0 0.00 0.03 0.01 94 1008.8
20190216142026 35 82 0.0 0.0 0.00 0.03 0.01 94 1008.8
20190216141527 35 82 0.0 0.0 0.00 0.03 0.01 94 1008.8
20190216141027 35 82 0.0 0.0 0.00 0.03 0.01 94 1008.8
20190216140558 35 82 0.0 0.0 0.00 0.03 0.01 94 1008.6
20190216140037 35 82 0.0 0.0 0.00 0.03 0.01 94 1008.6
20190216135538 35 82 0.0 0.0 0.00 0.03 0.01 94 1008.5
20190216135042 35 82 0.0 0.0 0.00 0.03 0.01 94 1008.4
20190216134543 35 82 0.0 0.0 0.00 0.03 0.01 94 1008.5
20190216134043 35 82 0.0 0.0 0.00 0.03 0.01 94 1008.5
20190216133543 35 82 0.0 0.0 0.00 0.03 0.01 93 1008.4
20190216133044 35 82 0.0 0.0 0.00 0.03 0.01 94 1008.2
20190216132544 35 82 0.0 0.0 0.00 0.03 0.01 94 1008.1
20190216132045 35 82 0.0 0.0 0.00 0.03 0.01 94 1008.2
20190216131545 35 82 0.0 0.0 0.00 0.03 0.01 94 1008.2
20190216131045 35 82 0.0 0.0 0.00 0.03 0.01 94 1008.1
20190216130602 35 82 0.0 0.0 0.00 0.03 0.01 94 1008.1
20190216130042 35 82 0.0 0.0 0.00 0.03 0.01 94 1008.1
20190216125543 35 82 0.0 0.0 0.00 0.03 0.01 94 1007.9
20190216125027 35 82 0.0 0.0 0.00 0.03 0.01 94 1008.0
20190216124527 35 82 0.0 0.0 0.00 0.03 0.01 93 1007.9
20190216124028 35 82 0.0 0.0 0.00 0.03 0.01 93 1007.9
20190216123528 35 82 0.0 0.0 0.00 0.03 0.01 93 1007.9
20190216123029 35 82 0.0 0.0 0.00 0.03 0.01 93 1007.9
20190216122530 35 82 0.0 0.0 0.00 0.03 0.01 93 1007.9
20190216122029 35 82 0.0 0.0 0.00 0.03 0.01 93 1007.8
20190216121529 35 82 0.0 0.0 0.00 0.03 0.01 93 1007.8
20190216121029 35 82 0.0 0.0 0.00 0.03 0.01 93 1007.7
20190216120606 35 82 0.0 0.0 0.00 0.03 0.01 93 1007.7
20190216120045 35 82 0.0 0.0 0.00 0.04 0.01 93 1007.7
20190216115545 35 82 0.0 0.0 0.00 0.04 0.01 93 1007.6
20190216115045 35 82 0.0 0.0 0.00 0.04 0.01 93 1007.5
20190216114529 35 82 0.0 0.0 0.00 0.04 0.01 93 1007.4
20190216114029 35 82 0.0 0.0 0.00 0.04 0.01 93 1007.6
20190216113529 35 82 0.0 0.0 0.00 0.04 0.01 93 1007.6
20190216113028 35 82 0.0 0.0 0.00 0.04 0.01 93 1007.6
20190216112527 35 82 0.0 0.0 0.00 0.04 0.01 93 1007.6
20190216112027 35 82 0.0 0.0 0.00 0.04 0.01 93 1007.6
20190216111527 35 82 0.0 0.0 0.00 0.04 0.01 93 1007.6
20190216111026 35 82 0.0 0.0 0.00 0.04 0.01 94 1007.3
20190216110601 35 82 0.0 0.0 0.00 0.04 0.01 93 1007.5
20190216110041 35 82 0.0 0.0 0.00 0.04 0.01 94 1007.5
20190216105541 35 82 0.0 0.0 0.00 0.04 0.01 94 1007.4
20190216105040 35 82 0.0 0.0 0.00 0.04 0.01 94 1007.5
20190216104540 35 82 0.0 0.0 0.00 0.04 0.01 94 1007.5
20190216104040 35 82 0.0 0.0 0.00 0.04 0.01 94 1007.6
20190216103544 35 82 0.0 0.0 0.00 0.04 0.01 94 1007.5
20190216103044 35 82 0.0 0.0 0.00 0.04 0.01 93 1007.3
20190216102544 35 82 0.0 0.0 0.00 0.04 0.01 93 1007.3